◎C/2002 C1の連結軌道です



 5月のEMESのC/877 = C/1273 = C/1661 C1 = C/2002 C1の連結軌道公表から

約2カ月が過ぎました.次の軌道は,1661年から2001年と2002年のみに行なわ

れた1427個の観測を結んで,我々(長谷川・中野;NK860)のC/877とC/1273と

の同定が正しいかどうかを確かめるものです.

 この軌道からの過去の近日点通過は,1273年1月18日(877年〜2002年の連結

軌道では,1273年2月4日),876年12月18日(同,877年2月13日)となりま

す.連結軌道は,まだ,安定していませんが,この軌道以外に確かめた数多く

の連結軌道の結果は,それぞれの近日点通過は,概略,1273年で±3カ月,

877年で±6カ月以内に入ります.このため,我々の連結軌道,C/877 = C/1273

= C/1661 C1 = C/2002 C1は,正しいものと思われます.



    C/1661 C1 (Hevelius) = C/2002 C1 (Ikeya-Zhang) 

Epoch 1661 Feb. 2.0 TT = JDT 2327760.5  

T 1661 Jan. 28.98066 TT                                 Nakano

q   0.5129361            (2000.0)            P               Q

n   0.00257860     Peri.   35.06572     -0.55470220     -0.68679326

a  52.6679965      Node    93.40805     +0.61444491     -0.71876239

e   0.9902610      Incl.   28.06901     +0.56103736     +0.10814639

P 382.23



Epoch 2002 Mar. 27.0 TT = JDT 2452360.5  

T 2002 Mar. 18.97982 TT                                 Nakano

q   0.5070683            (2000.0)            P               Q

n   0.00270653     Peri.   34.66704     -0.54914584     -0.69069000

a  50.9949590      Node    93.37023     +0.61959686     -0.71429315

e   0.9900565      Incl.   28.12080     +0.56083739     +0.11283886

P 364.16

From 1427 observations 1661-2002, weighting mean residual 1".03.

   Nongravitational parameters A1 = +0.44 +/- 0.02, A2 = -0.0202 +/- 0.0004.

Residuals in seconds of arc 

1661/                     020314 152  2.0-  1.1+    020518 349  0.4-  0.4-  

610203 058 0.43- 0.13+    020314 152  2.4-  1.5+    020518 349  0.3-  0.5-  

610206 058 0.12- 0.09+    020315 300  1.6-  0.2+    020518 A46  0.0   1.8-  

610207 058 0.12- 0.15+    020315 300  1.5-  0.1+    020518 A46  0.2-  1.5-  

610207 058 0.06- 0.12+    020315 300  1.5-  0.8+    020518 A46  0.1+  1.5-  

610210 058 0.01- 0.07+    020315 300  1.9-  0.2+    020518 057  1.3-  2.1-  

610210 058 0.00- 0.08+    020316 897  0.8-  0.8+    020518 A46  0.1-  0.9-  

610213 058 0.19+ 0.06+    020316 349  1.8-  0.1+    020518 057  1.4-  0.5+  

610220 058 0.11+ 0.08+    020316 347  1.4-  0.3-    020518 057  0.2-  0.0   

610302 058 0.06- 0.02+    020316 349  1.9-  0.4+    020518 057  0.0   1.4-  

610302 058 0.07- 0.01+    020316 347  1.7-  0.3+    020518 057  0.7-  0.4-  

610310 058 0.51- 0.09+    020316 897  1.8-  0.0     020518 939  0.0   0.2-  

2001/                     020316 347  1.2-  0.2+    020518 939  0.0   0.1+  

010825 644  1.9-  0.2+    020316 347  0.9-  0.2+    020518 939  0.0   0.2-  

010825 644  1.7-  0.1+    020316 349  1.8-  0.3+    020518 170 (1.4+  3.0+) 

010825 644  1.7-  0.1+    020316 349  2.0-  0.1+    020519 952  1.7+  0.7+  

2002/                     020316 360  1.6-  0.1-    020519 212  0.3-  0.4-  

020201 620  1.9+  0.5+    020316 360  1.5-  0.3+    020519 952  1.6-  1.1-  

020201 620  2.2+  0.8+    020316 360  2.0-  0.1+    020519 952  0.1-  0.1+  

020201 620  2.2+  2.4+    020316 367  1.9-  0.5+    020519 941  0.5-  0.2-  

020201 620  2.2+  2.1+    020316 367  1.7-  0.3+    020519 941  0.5-  0.0   

020202 739  0.3+  0.4-    020316 367  1.5-  0.2+    020519 941  0.3+  0.1+  

020202 739  1.2+  0.7+    020316 300  2.0-  0.1+    020519 941  0.3-  0.1+  

020202 739  0.6-  0.0     020316 367  1.2-  0.4+    020519 213  0.2+  0.4+  

020202 734  1.9+  0.4-    020316 300  2.1-  0.1+    020519 213  0.2+  0.4+  

020202 734 (3.2+  0.3+)   020316 300  1.8-  0.3+    020520 232  1.3-  0.7+  

020202 734 (2.7+  0.2+)   020316 300  2.2-  0.2+    020520 232  1.0-  0.6+  

020202 327  1.0+  0.5+    020316 152 (2.5-  1.3+)   020520 232  1.0-  1.1+  

020202 327  1.0+  0.2+    020316 152  2.3-  1.6-    020520 360  0.3-  0.0   

020202 327  0.7+  0.9+    020316 540  2.1-  1.8+    020520 360  0.3-  0.4-  

020202 046  0.0   0.3+    020316 540  1.0-  0.8-    020520 104  0.4-  0.4+  

020202 118  0.8+  0.1+    020316 235 (2.8-  2.5+)   020520 104  0.3-  0.6+  

020202 046  1.0-  0.7-    020316 540  1.2-  1.6+    020520 104  0.7-  0.3+  

020202 118  1.1+  0.8+    020317 367 (2.7-  0.1-)   020520 104  0.1-  0.4+  

020202 046  0.0   0.5+    020317 367  2.4-  0.2-    020520 170  1.0-  0.6-  

020202 046  0.4-  0.1-    020317 367  2.3-  0.5-    020520 170  0.5-  0.1+  

020202 118  1.2+  0.7+    020318 300  2.4-  0.0     020521 704  0.8+  1.3+  

020202 046  0.8-  1.2-    020318 300  2.0-  0.2-    020521 704  0.0   1.3+  

020202 118  1.3+  1.0+    020318 300  2.2-  0.3-    020521 704 (3.7+  0.4+) 

020202 046  0.0   0.2+    020318 300  2.1-  0.4-    020521 785  1.3+  2.2+  

020202 636  0.4+  1.3+    020318 300  2.0-  0.1-    020521 785 (2.6+  1.8+) 

020202 636  0.2+  0.6+    020318 300  2.4-  0.2-    020521 342  0.5-  0.7+  

020202 151 (2.5-  0.1+)   020318 300  2.3-  0.2-    020521 342  0.2+  0.2+  

020202 636  0.4-  0.1-    020318 372 (2.8-  0.2+)   020521 355  0.3+  0.1+  

020202 151  1.6-  1.5+    020318 367  2.4-  0.8-    020521 355  0.0   0.5+  

020202 636  1.0+  1.2+    020318 367 (2.6-  0.6-)   020521 355  0.1-  0.5+  

020202 151 (2.7-  0.4+)   020318 367 (2.5-  0.3-)   020521 349  0.0   0.6+  

020202 201  1.2+  0.4+    020319 300 (2.7-  0.5-)   020521 349  0.1-  0.6+  

020202 151  0.9-  0.6+    020319 300  2.2-  0.8-    020521 349  0.0   0.5+  

020202 104  1.4-  0.6-    020319 300  2.4-  0.7-    020521 349  0.0   0.7+  

020202 201  0.9+  0.1+    020319 300  2.2-  0.9-    020521 349  0.0   0.7+  

020202 104  0.0   0.4-    020319 300 (2.7-  0.4-)   020521 246 (1.3-  2.9+) 

020202 201 (2.5+  0.7+)   020319 300 (2.7-  1.0-)   020521 246 (0.7-  3.0+) 

020202 104  0.4+  0.8+    020319 300  2.3-  0.3-    020521 246 (0.8-  2.6+) 

020202 104  0.5+  0.3+    020319 300  2.3-  0.7-    020523 342  0.1+  0.8+  

020202 104  0.4+  1.3+    020319 300  2.4-  0.5-    020523 342  0.2-  0.2-  

020202 941  1.4+  0.4+    020319 300 (2.6-  0.7-)   020523 213  0.6+  0.7+  

020202 232  2.0+  0.2-    020319 620  2.3-  1.9-    020523 170  0.2+  0.0   

020202 232  0.7+  0.0     020319 620 (2.7-  0.4-)   020523 170  0.4+  0.4-  

020202 941  2.1+  0.6+    020319 620  2.3-  1.6-    020523 938  0.4+  0.4+  

020202 201  0.8+  0.8+    020320 300  2.4-  0.6-    020523 938  0.1+  0.3+  

020202 941  1.5+  0.5+    020320 300  2.1-  0.6-    020523 938  0.2-  0.4+  

020202 232  1.8+  0.4+    020320 300  2.2-  0.7-    020523 938  0.2-  0.4+  

020202 941  0.8+  0.7+    020320 300  2.1-  0.8-    020523 938  0.1+  0.2+  

020202 232  0.7+  0.1+    020320 300  2.4-  0.5-    020524 340  0.0   0.2-  

020202 213  0.1-  0.6+    020320 300  2.4-  0.7-    020524 340  0.1+  0.2-  

020202 941  1.4+  0.9+    020320 300  2.4-  0.7-    020524 340  0.4+  0.1-  

020202 232  0.8+  0.2+    020320 300  2.1-  0.5-    020524 342  0.2-  0.7-  

020202 213  0.3+  0.5+    020320 340 (2.6-  0.3-)   020524 342  1.0+  1.1-  

020202 213  0.5+  0.3+    020320 340  2.2-  0.8-    020524 201  0.3-  1.9-  

020202 213  1.8+  0.3+    020320 340 (2.5-  1.2-)   020524 213  0.0   0.4+  

020202 213  0.2+  0.3+    020320 340 (3.0-  1.9-)   020524 213  0.1+  0.2+  

020202 213  0.7+  0.7+    020320 340 (2.7-  0.9-)   020524 201  1.2-  1.2-  

020203 452  1.5+  1.1+    020320 620  2.1-  0.3-    020524 620  0.4+  1.3+  

020203 452 (4.1+  1.0+)   020320 620  1.9-  0.3-    020524 620  0.5+  1.4+  

020203 452  1.9+  0.9+    020320 620  1.9-  0.2-    020524 620  0.1+  1.2+  

020203 428  0.5+  0.0     020320 587 (3.8-  0.2+)   020524 445 (0.9+  2.9+) 

020203 428  0.5+  0.1+    020320 587 (3.1-  0.6-)   020524 445 (0.3+  2.5+) 

020203 428  0.0   0.0     020321 300  1.7-  0.3-    020524 445 (2.5+  0.4+) 

020203 428  0.4+  0.1+    020321 300  1.4-  0.5-    020524 445 (0.8+  3.0+) 

020203 367  0.6+  1.5+    020321 347 (2.6-  0.8-)   020524 939  0.9+  0.0   

020203 367  1.4-  0.4-    020321 300  1.6-  0.1+    020524 939  0.5+  0.1+  

020203 367  1.8-  1.2-    020321 300  1.7-  0.2-    020524 939  0.2+  0.2+  

020203 367  0.1-  0.6-    020321 300  1.9-  0.0     020525 232  0.1+  1.3+  

020203 367  1.2+  1.6+    020321 300  1.8-  0.0     020525 232  0.2-  0.5+  

020203 046  0.7+  0.4-    020321 300  1.4-  0.2-    020525 349  0.1+  0.1-  

020203 046  1.4+  0.3-    020321 300  1.7-  0.1-    020525 349  0.4+  0.4-  

020203 046  1.2+  0.5-    020321 300  1.5-  0.4-    020525 349  0.0   0.2-  

020203 046  1.6+  0.3+    020321 347  2.4-  0.5-    020525 367  0.4+  0.4-  

020203 235 (4.4+  6.0+)   020321 347  2.1-  0.5-    020525 367  0.6+  0.4-  

020204 896  0.6-  1.0+    020322 941  1.5-  0.7-    020525 367  0.6+  0.2-  

020204 349  0.3-  0.1-    020322 941  0.6-  0.2+    020525 355  0.7+  0.9+  

020204 349  0.1+  0.1-    020322 941  1.0-  0.0     020525 355  0.3+  0.8+  

020204 349  0.2+  0.1+    020322 941  1.2-  0.1+    020525 355  0.3+  0.9+  

020204 349  0.2-  0.5-    020323 235 (4.5-  0.3-)   020525 213  0.6+  0.1-  

020204 349  0.1+  0.1-    020324 235 (3.7-  1.5-)   020525 213  0.2-  0.3-  

020204 342  0.3-  0.5-    020324 213 (2.9-  1.1-)   020525 213  0.9+  0.1-  

020204 342  0.6+  0.0     020324 213  2.3-  1.0-    020525 170  0.8+  0.4-  

020204 342  0.5+  0.7-    020325 367 (4.5-  1.9-)   020525 170  0.2+  0.2-  

020204 372  0.5-  1.3+    020325 367 (4.5-  1.8-)   020525 201  0.3+  0.1-  

020204 118  1.5+  0.1-    020325 367 (4.6-  1.6-)   020525 201  0.3+  0.8+  

020204 118  1.2+  0.6+    020325 235 (2.9-  0.1+)   020525 201  0.9+  0.1+  

020204 046  0.6+  0.5+    020326 235  1.8-  1.3+    020525 939 (2.2+  3.4+) 

020204 046  0.7+  0.8+    020327 300  1.1-  1.3-    020525 939 (2.0+  3.2+) 

020204 118  1.1+  0.0     020327 300  1.3-  1.3-    020525 939 (2.0+  3.2+) 

020204 046  0.8+  0.9+    020327 300  1.5-  1.1-    020525 941  0.2+  0.0   

020204 046  0.8+  1.0+    020327 300  1.4-  1.0-    020525 941  0.9+  0.3+  

020205 452  0.5+  0.1-    020327 300  1.1-  1.0-    020525 941  0.9+  0.3+  

020205 452  0.0   0.2+    020327 300  1.3-  1.1-    020526 355  0.1-  0.4+  

